• Join FlightAware (Why Join?)
  • Login
  • US Flag 
03:51PM EDT


 

Airport Tracker/Info


-or-


 

Live Flight TrackerFlight Track Log ✈ EJA922 ✈ 22-Jul-2013 ✈ KTEB - KCHO

Flight Track Log - Related Links

Times and Time Zones

All times are in EDT time to prevent confusion due to time zone crossing. See the EJA922 flight status page for this flight to view local times or setup timezone preferences in your user account.

Time Position Orientation Groundspeed Altitude Reporting Facility
EDT Latitude Longitude Course Direction KTS MPH feet Rate Location/Type
10:29AM 40.9000 -74.0333 290° West 229 264 2,800  Level New York TRACON
10:31AM 40.9414 -74.1828 290° West 264 304 6,500 2,460 Climbing New York Center
10:32AM 40.9361 -74.2981 267° West 281 323 9,800 2,640 Climbing New York Center
10:33AM 40.9100 -74.3981 251° West 309 356 11,900 2,520 Climbing New York Center
10:34AM 40.8108 -74.4367 196° South 298 343 15,000 2,520 Climbing New York Center
10:35AM 40.7464 -74.5072 220° Southwest 335 386 17,000 960 Climbing New York Center
10:36AM 40.6958 -74.6494 245° Southwest 362 417 17,000 240 Level New York Center
10:37AM 40.6500 -74.7728 244° Southwest 411 473 17,500 1,020 Climbing New York Center
10:38AM 40.5583 -74.8931 225° Southwest 424 488 19,100 1,380 Climbing New York Center
10:39AM 40.4775 -75.0028 226° Southwest 429 494 20,300 1,200 Climbing New York Center
10:40AM 40.4072 -75.0992 226° Southwest 429 494 21,600 1,140 Climbing New York Center
10:41AM 40.3281 -75.2086 227° Southwest 422 486 22,600 840 Climbing New York Center
10:42AM 40.2378 -75.3361 227° Southwest 430 495 23,400 900 Climbing New York Center
10:43AM 40.1542 -75.4503 226° Southwest 435 501 24,500 960 Climbing New York Center
10:44AM 40.0811 -75.5539 227° Southwest 435 501 25,400 720 Climbing New York Center
10:45AM 39.9886 -75.6775 226° Southwest 442 509 26,000 180 Climbing New York Center
10:47AM 39.8342 -75.8914 227° Southwest 473 544 26,000  Level Washington Center
10:48AM 39.7336 -76.0286 226° Southwest 478 550 26,000  Level Washington Center
10:49AM 39.6497 -76.1414 226° Southwest 478 550 26,000 -780 Level Washington Center
10:50AM 39.5428 -76.2778 225° Southwest 478 550 24,500 -2,040 Descending Washington Center
10:51AM 39.4547 -76.3978 226° Southwest 478 550 22,100 -1,320 Descending Washington Center
10:52AM 39.3786 -76.5206 231° Southwest 467 537 22,000 -60 Descending Washington Center
10:53AM 39.3028 -76.6375 230° Southwest 448 516 22,000  Level Washington Center
10:54AM 39.2267 -76.7569 231° Southwest 443 510 22,000  Level Washington Center
10:55AM 39.1525 -76.8764 231° Southwest 437 503 22,000  Level Washington Center
10:56AM 39.0761 -76.9928 230° Southwest 443 510 22,000 -480 Level Washington Center
10:57AM 39.0017 -77.1114 231° Southwest 443 510 21,100 -1,020 Descending Washington Center
10:58AM 38.9272 -77.2328 232° Southwest 443 510 20,000 -780 Descending Washington Center
10:59AM 38.8525 -77.3483 230° Southwest 443 510 19,600 -1,260 Descending Washington Center
11:00AM 38.7778 -77.4664 231° Southwest 438 504 17,600 -2,040 Descending Washington Center
11:01AM 38.7031 -77.5814 230° Southwest 438 504 15,200 -2,520 Descending Washington Center
11:02AM 38.6194 -77.7122 231° Southwest 419 482 12,100 -2,040 Descending Washington Center
11:04AM 38.4833 -77.9167 230° Southwest 300 345 9,100 -1,080 Descending Potomac TRACON
11:05AM 38.4333 -77.9833 226° Southwest 273 314 9,000 -60 Descending Potomac TRACON
11:06AM 38.3667 -78.0167 201° Southwest 281 323 9,000  Level Potomac TRACON
11:07AM 38.3000 -78.0333 191° South 289 333 9,000 -480 Level Potomac TRACON
11:08AM 38.2333 -78.0500 191° South 289 333 8,200 -540 Descending Potomac TRACON
11:09AM 38.1667 -78.1167 218° Southwest 277 319 8,000 -1,140 Descending Potomac TRACON
11:10AM 38.1167 -78.1833 226° Southwest 276 318 6,000 -1,680 Descending Potomac TRACON
11:11AM 38.0667 -78.2500 226° Southwest 247 284 4,700 -1,020 Descending Potomac TRACON
11:12AM 38.0167 -78.3000 218° Southwest 229 264 4,000 -360 Descending Potomac TRACON
11:13AM 37.9667 -78.3500 218° Southwest 213 245 4,000  Level Potomac TRACON
11:14AM 37.9333 -78.4000 230° Southwest 218 251 4,000 -240 Level Potomac TRACON
11:15AM 37.9000 -78.4500 230° Southwest 230 265 3,600 -420 Descending Potomac TRACON
11:16AM 37.9167 -78.5167 288° West 218 251 3,300 -180 Descending Potomac TRACON
11:17AM 37.9833 -78.5333 349° North 204 235 3,300 -300 Level Potomac TRACON
11:18AM 38.0167 -78.5000 38° Northeast 164 189 2,800 -660 Descending Potomac TRACON
11:19AM 38.0667 -78.4833 15° North 150 173 2,000 -780 Descending Potomac TRACON
11:20AM 38.1000 -78.4667 21° North 135 155 1,300 -720 Descending Potomac TRACON
11:22AM 38.1333 -78.4500 North  Level FlightAware Approximate
11:29AM 38.1386 -78.4529 North  Level Estimated
11:30AM 38.1333 -78.4500 North  Level FlightAware Approximate
11:31AM 38.1386 -78.4529 North  Level Estimated
11:32AM 38.1333 -78.4500 North  Level FlightAware Approximate